CZ-6A DEB, 56651

Orbit data source: Space-Track

CZ-6A DEB, 56651 is space debris in SSO originally from a launch on Fri, 11 Nov 2022 UTC launched from the Taiyaun Space Center, China (TSC). Debris objects in space refer to the collection of defunct objects orbiting the Earth. Examples of debris include non-operational satellites, rocket bodies, and fragments generated from explosions, collisions, or faulty payload assembly.

Loading next visibility...
Identifier
56651, 2022-151AGB
Orbit
SSO
Country
Flag of CNCN / PRC
Related business
Manufacturer
SAST
Mission
Spacecraft
Bus & Motor
Unknown
Mass
Unknown
Launch date (UTC)
2022-11-11 (3 years ago)
Launch vehicle
Unknown
Launch site
Taiyaun Space Center, China (TSC)
Object type
Payload
Rocket body
Debris
Shape & HBR
Unknown shape, 0.1 m
Radar Cross Section
Small (<0.1 m²)

Expand to show TLE details & history
Last TLE update: 1 day ago

TLE from 1 day ago
0 CZ-6A DEB
1 56651U 22151AGB 25348.59514259  .00011525  00000-0  19095-2 0  9996
2 56651  98.6217  38.6014 0069954 130.7525 229.9780 14.68796495148645
Epoch: 2025-12-14T14:17Z
TLE epoch observation values (Epoch: 2025-12-14T14:17:00.319Z)
Latitude
-0.00002°
Longitude
100.84427°
Altitude
699.788 km
Speed
7.489 km/s
True Right ascension
02h 34m 24s
True Declination
0° 00' 00"
Sunlit
Object was in full shadow at epoch
Visualization orbit readout
Latitude
Unknown
Longitude
Unknown
Altitude
Unknown
Speed
Unknown
Apparent Right ascension
Unknown
Apparent Declination
Unknown
Sunlit
N/A
Visualization observer readout
Local Sidereal Time
22:49:12
Azimuth
Unknown
Elevation
Unknown
Doppler factor
Unknown
Orbital elements
Apogee altitude
711.251 km
Perigee altitude
612.753 km
Semi-major axis
7,040.139 km
Eccentricity
0.007
Inclination
98.6217°
RAAN
38.6014°
Arg. of periapsis
130.7525°
True anomaly
229.36757°
Mean anomaly
229.978°
Eccentric anomaly
229.67244°
Mean motion
3.67427 °/min
Orbital period
97.98 mins
BSTAR
0.0019095
Loading maneuver chart data...
Computing Atmospheric mass density...

Documentation

Showing up to 5 results
|